Stations météo

réclame
Mon MeteoGroup
Perigueux, France (7428): Température de l'air & dewpoint: 11.12.2018 06:00:00 - 17.12.2018 06:00:00 (CET)Perigueux, France (7428): Vitesse du vent & gusts: 11.12.2018 06:00:00 - 17.12.2018 06:00:00 (CET)Perigueux, France (7428): Direction du vent: 11.12.2018 06:00:00 - 17.12.2018 06:00:00 (CET)Perigueux, France (7428): reduced air pressure: 11.12.2018 06:00:00 - 17.12.2018 06:00:00 (CET)Perigueux, France (7428): visibility: 11.12.2018 06:00:00 - 17.12.2018 06:00:00 (CET)
Date & Time tt [°C] td [°C] ff [km/h] ff [knt] fx [km/h] fx [knt] dd ppp [hPa] vv [km]
17.12.2018 06:00:00 1,9 1,8 0 0 8 4 N 1024,2 0,8
17.12.2018 05:00:00 2,3 2,2 4 2 8 4 E 1023,7 0,2
17.12.2018 04:00:00 3,3 3,2 4 2 4 2 WSW 1023,2 14
17.12.2018 03:00:00 4,4 4,1 2 1 9 5 W 1022,7 5
17.12.2018 02:00:00 4,8 4,4 0 0 11 6 N 1021,6 8
17.12.2018 01:00:00 6,0 5,1 4 2 11 6 SW 1021,0 19
17.12.2018 00:00:00 7,3 6,1 8 4 26 14 W 1020,1 55
16.12.2018 23:00:00 7,8 6,9 15 8 26 14 WSW 1018,8 40
16.12.2018 22:00:00 8,1 7,0 13 7 29 16 W 1017,6 45
16.12.2018 21:00:00 7,4 7,1 0 0 8 4 N 1016,5 3,8
16.12.2018 20:00:00 7,7 6,8 0 0 35 19 N 1015,8 10
16.12.2018 19:00:00 8,6 8,0 5 3 13 7 SW 1015,5 3,7
16.12.2018 18:00:00 8,9 8,4 0 0 8 4 N 1014,7 14
16.12.2018 17:00:00 9,3 8,5 5 3 9 5 SW 1014,3 18
16.12.2018 16:00:00 9,3 8,7 4 2 15 8 WSW 1013,7 18
16.12.2018 15:00:00 9,6 9,3 4 2 13 7 SW 1012,9 3,8
16.12.2018 14:00:00 9,8 9,7 8 4 11 6 ESE 1012,6 8
16.12.2018 13:00:00 9,1 9,1 4 2 5 3 E 1013,6 1,9
16.12.2018 12:00:00 8,9 8,9 2 1 5 3 E 1014,8 1,8
16.12.2018 11:00:00 8,6 8,6 5 3 11 6 E 1015,0 0,5
16.12.2018 10:00:00 8,0 8,0 4 2 15 8 E 1015,6 0,2
16.12.2018 09:00:00 7,9 7,9 5 3 9 5 E 1015,2 0,2
16.12.2018 08:00:00 8,1 8,1 2 1 13 7 E 1015,3 0,3
16.12.2018 07:00:00 8,3 8,3 2 1 16 9 NNE 1015,7 0,2
16.12.2018 06:00:00 8,1 8,1 2 1 11 6 W 1016,0 0,4
16.12.2018 05:00:00 8,0 8,0 0 0 5 3 N 1016,2 0,8
16.12.2018 04:00:00 7,9 7,9 0 0 5 3 N 1016,2 1,3
16.12.2018 03:00:00 7,7 7,7 0 0 11 6 N 1016,1 3,3
16.12.2018 02:00:00 7,1 7,1 2 1 5 3 WSW 1016,6 6
16.12.2018 01:00:00 6,9 6,8 0 0 4 2 N 1016,4 2,9
16.12.2018 00:00:00 6,5 6,4 0 0 13 7 N 1016,3 16
15.12.2018 23:00:00 6,2 6,1 4 2 8 4 ESE 1016,8 2,8
15.12.2018 22:00:00 5,8 5,7 4 2 13 7 WSW 1016,9 2,3
15.12.2018 21:00:00 5,6 5,5 4 2 8 4 E 1016,6 8
15.12.2018 20:00:00 5,4 5,3 4 2 5 3 E 1017,2 6
15.12.2018 19:00:00 5,0 4,7 2 1 9 5 E 1017,3 9
15.12.2018 18:00:00 4,8 4,5 5 3 13 7 E 1017,6 7
15.12.2018 17:00:00 4,4 4,1 9 5 15 8 E 1018,0 1,9
15.12.2018 16:00:00 4,3 3,9 5 3 13 7 E 1019,0 3,5
15.12.2018 15:00:00 4,1 3,5 8 4 13 7 E 1019,2 4,4
15.12.2018 14:00:00 3,8 2,6 4 2 15 8 ENE 1019,8 5
15.12.2018 13:00:00 3,7 1,4 8 4 13 7 E 1020,7 15
15.12.2018 12:00:00 3,4 0,4 8 4 15 8 E 1021,4 19
15.12.2018 11:00:00 2,3 -0,1 8 4 13 7 E 1022,2 17
15.12.2018 10:00:00 1,5 -0,1 5 3 9 5 ENE 1022,4 13
15.12.2018 09:00:00 0,4 -0,7 5 3 9 5 E 1022,3 10
15.12.2018 08:00:00 -0,2 -0,8 4 2 8 4 E 1022,4 5
15.12.2018 07:00:00 -0,5 -0,9 4 2 5 3 ENE 1022,6 3,4
15.12.2018 06:00:00 -1,0 -1,3 4 2 8 4 E 1023,1 2,6
15.12.2018 05:00:00 -1,1 -1,4 2 1 8 4 E 1023,6 2,9
15.12.2018 04:00:00 -0,7 -1,5 4 2 5 3 ENE 1023,8 3,0
15.12.2018 03:00:00 0,3 -0,6 2 1 5 3 W 1024,1 4,7
15.12.2018 02:00:00 0,1 -0,9 2 1 8 4 N 1023,6 4,5
15.12.2018 01:00:00 -0,2 -1,2 0 0 4 2 N 1024,0 4,8
15.12.2018 00:00:00 -0,4 -1,4 0 0 5 3 N 1024,7 5
14.12.2018 23:00:00 0,1 -1,5 4 2 9 5 N 1024,1 6
14.12.2018 22:00:00 0,6 -1,5 4 2 13 7 NNW 1024,1 8
14.12.2018 21:00:00 1,2 -0,6 5 3 16 9 NW 1024,4 7
14.12.2018 20:00:00 1,6 0,1 5 3 11 6 WSW 1024,2 7
14.12.2018 19:00:00 1,4 0,2 4 2 8 4 SW 1023,0 7
14.12.2018 18:00:00 1,5 0,3 0 0 5 3 N 1022,2 9
14.12.2018 17:00:00 1,7 0,2 2 1 18 10 SSW 1022,6 12
14.12.2018 16:00:00 1,2 0,2 11 6 16 9 WNW 1022,6 11
14.12.2018 15:00:00 1,5 1,2 2 1 11 6 NW 1021,1 5
14.12.2018 14:00:00 1,3 1,2 9 5 16 9 WNW 1020,3 4,6
14.12.2018 13:00:00 1,2 1,1 8 4 13 7 NNW 1020,5 4,7
14.12.2018 12:00:00 0,9 0,8 5 3 9 5 W 1019,7 3,5
14.12.2018 11:00:00 0,8 0,8 4 2 11 6 WSW 1019,1 2,2
14.12.2018 10:00:00 0,7 0,7 9 5 13 7 WNW 1018,5 2,9
14.12.2018 09:00:00 0,8 0,8 4 2 13 7 NNW 1017,6 0,8
14.12.2018 08:00:00 0,7 0,7 9 5 13 7 NW 1016,6 0,4
14.12.2018 07:00:00 1,6 1,5 5 3 9 5 NNW 1015,3 2,5
14.12.2018 06:00:00 2,1 2,0 5 3 9 5 W 1014,5 3,1
14.12.2018 05:00:00 2,5 2,4 4 2 8 4 W 1014,1 1,5
14.12.2018 04:00:00 2,6 2,5 4 2 5 3 NW 1014,2 2,7
14.12.2018 03:00:00 3,2 3,1 4 2 11 6 W 1013,8 3,5
14.12.2018 02:00:00 3,3 3,2 0 0 4 2 N 1013,1 1,6
14.12.2018 01:00:00 3,8 3,7 0 0 2 1 N 1012,6 0,3
14.12.2018 00:00:00 4,0 3,9 0 0 0 0 N 1012,5 1,3
13.12.2018 23:00:00 3,9 3,6 0 0 4 2 N 1011,6 2,8
13.12.2018 22:00:00 4,2 3,9 0 0 2 1 N 1010,9 8
13.12.2018 21:00:00 4,5 4,1 2 1 4 2 SSW 1010,6 3,8
13.12.2018 20:00:00 5,7 5,3 0 0 4 2 N 1009,5 8
13.12.2018 19:00:00 6,2 5,6 0 0 4 2 N 1009,0 11
13.12.2018 18:00:00 6,7 6,1 4 2 5 3 SW 1008,4 16
13.12.2018 17:00:00 7,4 6,2 2 1 4 2 SW 1007,9 16
13.12.2018 16:00:00 8,0 5,3 0 0 5 3 N 1007,1 25
13.12.2018 15:00:00 8,2 5,1 0 0 5 3 N 1006,6 50
13.12.2018 14:00:00 8,1 4,9 5 3 8 4 ENE 1006,8 60
13.12.2018 13:00:00 7,7 4,8 4 2 13 7 ENE 1006,9 50
13.12.2018 12:00:00 7,0 4,8 5 3 9 5 E 1007,5 35
13.12.2018 11:00:00 5,8 4,3 4 2 5 3 E 1007,9 25
13.12.2018 10:00:00 5,3 5,3 0 0 4 2 N 1007,8 13
13.12.2018 09:00:00 2,9 2,9 4 2 8 4 ENE 1007,5 1,9
13.12.2018 08:00:00 3,6 3,6 5 3 9 5 E 1008,2 4,0
13.12.2018 07:00:00 3,7 3,4 4 2 8 4 E 1008,8 2,5
13.12.2018 06:00:00 5,0 4,6 0 0 5 3 N 1009,3 7
13.12.2018 05:00:00 5,6 5,2 4 2 5 3 E 1010,0 12
13.12.2018 04:00:00 5,6 5,0 2 1 5 3 ENE 1011,2 14
13.12.2018 03:00:00 6,3 5,3 5 3 13 7 ENE 1011,8 19
13.12.2018 02:00:00 6,3 5,4 2 1 8 4 SE 1012,7 15
13.12.2018 01:00:00 6,2 5,9 5 3 8 4 E 1013,0 7
13.12.2018 00:00:00 6,1 5,8 4 2 9 5 E 1013,9 5
12.12.2018 23:00:00 6,2 5,8 4 2 8 4 E 1014,6 6
12.12.2018 22:00:00 6,3 5,9 4 2 8 4 S 1015,5 8
12.12.2018 21:00:00 5,8 4,8 0 0 8 4 N 1016,3 15
12.12.2018 20:00:00 6,7 6,3 2 1 4 2 E 1016,7 6
12.12.2018 19:00:00 6,9 6,2 0 0 8 4 N 1017,1 11
12.12.2018 18:00:00 7,1 6,0 0 0 5 3 N 1017,5 10
12.12.2018 17:00:00 7,1 6,0 2 1 8 4 SSE 1017,6 18
12.12.2018 16:00:00 7,5 6,0 2 1 11 6 S 1017,6 28
12.12.2018 15:00:00 7,6 5,9 5 3 13 7 S 1017,7 19
12.12.2018 14:00:00 6,5 5,3 5 3 13 7 W 1018,6 19
12.12.2018 13:00:00 4,5 3,8 0 0 8 4 N 1019,6 11
12.12.2018 12:00:00 3,0 2,6 4 2 8 4 E 1020,6 15
12.12.2018 11:00:00 1,8 1,7 0 0 5 3 N 1021,2 14
12.12.2018 10:00:00 0,7 0,7 0 0 11 6 N 1021,2 7
12.12.2018 09:00:00 -0,6 -0,7 0 0 5 3 N 1021,0 9
12.12.2018 08:00:00 -1,2 -1,3 2 1 8 4 E 1020,7 7
12.12.2018 07:00:00 -1,9 -2,2 2 1 4 2 E 1021,0 5
12.12.2018 06:00:00 -2,0 -2,3 4 2 8 4 ENE 1021,0 6
12.12.2018 05:00:00 -1,0 -1,1 2 1 4 2 WSW 1021,5 11
12.12.2018 04:00:00 -1,0 -1,1 4 2 8 4 E 1021,7 4,5
12.12.2018 03:00:00 -0,6 -0,7 0 0 5 3 N 1022,2 6
12.12.2018 02:00:00 -0,6 -0,7 0 0 5 3 N 1022,1 2,4
12.12.2018 01:00:00 -0,9 -1,0 4 2 5 3 E 1022,1 0,2
12.12.2018 00:00:00 -0,8 -1,1 0 0 5 3 N 1022,2 2,0
11.12.2018 23:00:00 -0,2 -0,5 4 2 4 2 ESE 1022,2 0,3
11.12.2018 22:00:00 0,5 0,2 0 0 5 3 N 1021,9 1,7
11.12.2018 21:00:00 1,3 1,0 2 1 4 2 E 1021,9 7
11.12.2018 20:00:00 2,2 1,8 2 1 8 4 ESE 1021,8 12
11.12.2018 19:00:00 2,9 2,2 0 0 5 3 N 1021,9 16
11.12.2018 18:00:00 4,3 3,1 2 1 4 2 ESE 1022,1 50
11.12.2018 17:00:00 7,2 4,2 0 0 8 4 N 1021,9 60
11.12.2018 16:00:00 10,3 3,3 4 2 11 6 N 1022,0 60
11.12.2018 15:00:00 10,0 3,7 2 1 5 3 NE 1022,4 60
11.12.2018 14:00:00 8,4 4,8 2 1 5 3 W 1023,3 45
11.12.2018 13:00:00 6,1 4,4 0 0 5 3 N 1024,4 19
11.12.2018 12:00:00 3,8 3,8 0 0 5 3 N 1025,5 14
11.12.2018 11:00:00 1,1 1,1 2 1 5 3 E 1026,3 0,2
11.12.2018 10:00:00 -0,1 -0,1 2 1 4 2 ENE 1026,4 0,1
11.12.2018 09:00:00 -0,2 -0,2 0 0 5 3 N 1026,4 -
11.12.2018 08:00:00 -0,3 -0,3 0 0 9 5 N 1026,6 -
11.12.2018 07:00:00 0,1 0,1 2 1 5 3 E 1026,7 0,1
11.12.2018 06:00:00 0,1 0,1 2 1 5 3 NE 1027,4 0,1

tt = Température de l'air
td = dewpoint
ff = Vitesse du vent
fx = gusts
dd = Direction du vent
ppp = reduced air pressure
vv = visibility

stations d'obs. à proximité